W5COG Weather Reports


Display with metric or nautical units.
time (UTC)temp
F
wind
direction
speed
MPH
gust
MPH
rain 1hr
in
rain 24hr
in
rain mn
in
humidity
%
barometer
mb
20260906185026 96 189 3.0 8.0 0.00 0.00 0.00 34 1012.9
20260906184526 97 197 5.0 9.0 0.00 0.00 0.00 34 1013.0
20260906183026 99 174 1.0 3.0 0.00 0.00 0.00 31 1013.1
20260906182526 100 150 1.0 3.0 0.00 0.00 0.00 31 1013.1
20260906173026 99 331 4.0 9.0 0.00 0.00 0.00 31 1013.9
20260906172526 99 340 3.0 6.0 0.00 0.00 0.00 32 1014.0
20260906172026 99 295 2.0 5.0 0.00 0.00 0.00 33 1014.1
20260906171526 98 317 4.0 7.0 0.00 0.00 0.00 33 1014.2
20260906171026 98 338 3.0 6.0 0.00 0.00 0.00 33 1014.3
20260906170526 98 320 3.0 8.0 0.00 0.00 0.00 33 1014.4
20260906163026 97 28 2.0 5.0 0.00 0.00 0.00 37 1014.6
20260906162526 96 313 2.0 4.0 0.00 0.00 0.00 38 1014.6
20260906144026 89 327 1.0 3.0 0.00 0.00 0.00 49 1014.4
20260906143526 89 190 0.0 2.0 0.00 0.00 0.00 49 1014.4
20260906125027 78 275 0.0 0.0 0.00 0.00 0.00 67 1013.8
20260906124526 78 235 0.0 1.0 0.00 0.00 0.00 68 1013.8
20260906123026 78 163 0.0 1.0 0.00 0.00 0.00 67 1013.5
20260906122526 78 183 0.0 1.0 0.00 0.00 0.00 67 1013.4
20260906121026 76 118 0.0 1.0 0.00 0.00 0.00 71 1013.3
20260906120526 76 60 0.0 0.0 0.00 0.00 0.00 72 1013.3
20260906114026 77 96 0.0 1.0 0.00 0.00 0.00 73 1013.2
20260906113526 77 116 0.0 0.0 0.00 0.00 0.00 71 1013.1
20260906113026 77 117 0.0 0.0 0.00 0.00 0.00 71 1012.9
20260906112526 77 101 0.0 0.0 0.00 0.00 0.00 71 1012.8
20260906111026 77 83 0.0 0.0 0.00 0.00 0.00 71 1012.8
20260906110526 77 83 0.0 0.0 0.00 0.00 0.00 70 1012.8
20260906102026 78 353 0.0 1.0 0.00 0.00 0.00 72 1012.6
20260906101526 78 323 0.0 0.0 0.00 0.00 0.00 72 1012.6
20260906093026 79 260 0.0 0.0 0.00 0.00 0.00 64 1012.6
20260906092527 79 313 0.0 1.0 0.00 0.00 0.00 63 1012.6
20260906092026 79 297 0.0 0.0 0.00 0.00 0.00 63 1012.5
20260906091526 79 214 0.0 0.0 0.00 0.00 0.00 63 1012.5
20260906091026 79 250 0.0 0.0 0.00 0.00 0.00 64 1012.5
20260906090526 79 10 0.0 0.0 0.00 0.00 0.00 66 1012.4
20260906075526 80 92 1.0 1.0 0.00 0.00 0.00 59 1012.2
20260906075026 80 93 1.0 1.0 0.00 0.00 0.00 59 1012.2
20260906065526 81 84 0.0 2.0 0.00 0.00 0.00 60 1012.2
20260906065026 81 68 0.0 1.0 0.00 0.00 0.00 62 1012.2
20260906063526 81 90 0.0 2.0 0.00 0.00 0.00 64 1012.3
20260906063026 81 70 0.0 1.0 0.00 0.00 0.00 63 1012.3
20260906055526 81 19 0.0 0.0 0.00 0.00 0.00 66 1012.4
20260906055026 81 70 0.0 0.0 0.00 0.00 0.00 65 1012.5
20260906054526 81 76 0.0 1.0 0.00 0.00 0.00 64 1012.4
20260906053026 82 62 0.0 0.0 0.00 0.00 0.00 63 1012.2
20260906052526 82 63 0.0 0.0 0.00 0.00 0.00 63 1012.3
20260906045026 83 39 0.0 1.0 0.00 0.00 0.00 59 1012.0
20260906044526 83 64 1.0 3.0 0.00 0.00 0.00 59 1012.0
20260906043026 83 80 1.0 2.0 0.00 0.00 0.00 62 1012.0
20260906042526 83 107 0.0 1.0 0.00 0.00 0.00 64 1012.0
20260906042026 84 122 0.0 0.0 0.00 0.00 0.00 62 1012.0
20260906041526 84 65 0.0 0.0 0.00 0.00 0.00 59 1012.1
20260906035026 88 31 0.0 1.0 0.00 0.00 0.00 46 1012.0
20260906034526 89 74 0.0 1.0 0.00 0.00 0.00 42 1012.0
20260906034026 89 113 0.0 0.0 0.00 0.00 0.00 42 1012.0
20260906033526 89 128 0.0 2.0 0.00 0.00 0.00 42 1011.9
20260906021026 89 112 1.0 2.0 0.00 0.00 0.00 44 1011.2
20260906020526 89 97 1.0 2.0 0.00 0.00 0.00 44 1011.2
20260906020026 89 99 2.0 3.0 0.00 0.00 0.00 44 1011.1
20260906015526 89 96 1.0 2.0 0.00 0.00 0.00 45 1011.1
20260906015026 89 109 0.0 1.0 0.00 0.00 0.00 45 1011.1
20260906014526 89 101 0.0 1.0 0.00 0.00 0.00 46 1011.1
20260906002526 94 83 1.0 2.0 0.00 0.00 0.00 40 1010.7
20260906002026 94 96 1.0 3.0 0.00 0.00 0.00 39 1010.7
20260905230026 99 116 3.0 5.0 0.00 0.00 0.00 30 1010.5
20260905225526 99 103 4.0 7.0 0.00 0.00 0.00 29 1010.4
20260905223026 100 99 5.0 9.0 0.00 0.00 0.00 29 1010.4
20260905222526 100 70 3.0 9.0 0.00 0.00 0.00 28 1010.4
20260905221026 100 88 5.0 9.0 0.00 0.00 0.00 29 1010.5
20260905220526 100 99 4.0 7.0 0.00 0.00 0.00 29 1010.5
20260905205026 102 101 4.0 8.0 0.00 0.00 0.00 29 1011.4
20260905204526 101 141 4.0 8.0 0.00 0.00 0.00 29 1011.5
20260905204026 100 141 3.0 7.0 0.00 0.00 0.00 30 1011.5
20260905203526 100 84 2.0 7.0 0.00 0.00 0.00 29 1011.7
20260905203026 100 165 3.0 6.0 0.00 0.00 0.00 30 1011.8
20260905202526 98 162 3.0 10.0 0.00 0.00 0.00 32 1012.0